Stündliche Wetter Wargowko

Heute, 23 Oktober, Freitag

Zeit Temperatur Niederschläge Wind Luftdruck Luftfeuchtigkeit
00:00 +13°C° 0.4 mm 5 m/S 747 mmHg 87%
01:00 +13°C° 0 mm 6 m/S 746 mmHg 88%
02:00 +13°C° 0.1 mm 5 m/S 746 mmHg 89%
03:00 +13°C° 0.1 mm 5 m/S 746 mmHg 91%
04:00 +12°C° 0.1 mm 5 m/S 746 mmHg 92%
05:00 +12°C° 0 mm 5 m/S 746 mmHg 92%
06:00 +12°C° 0 mm 5 m/S 746 mmHg 93%
07:00 +10°C° 0 mm 5 m/S 746 mmHg 93%
08:00 +11°C° 0 mm 6 m/S 747 mmHg 87%
09:00 +13°C° 0 mm 6 m/S 747 mmHg 82%
10:00 +12°C° 0 mm 7 m/S 747 mmHg 76%
11:00 +13°C° 0 mm 6 m/S 747 mmHg 74%
12:00 +14°C° 0 mm 6 m/S 747 mmHg 71%
13:00 +14°C° 0 mm 6 m/S 747 mmHg 69%
14:00 +11°C° 0 mm 4 m/S 747 mmHg 86%
15:00 +11°C° 0 mm 4 m/S 747 mmHg 81%
16:00 +12°C° 0 mm 4 m/S 747 mmHg 75%
17:00 +11°C° 0 mm 3 m/S 747 mmHg 78%
18:00 +12°C° 0 mm 2 m/S 747 mmHg 81%
19:00 +10°C° 0 mm 2 m/S 747 mmHg 84%
20:00 +10°C° 0 mm 2 m/S 747 mmHg 85%
21:00 +10°C° 0 mm 2 m/S 747 mmHg 85%
22:00 +11°C° 0 mm 1 m/S 747 mmHg 86%
23:00 +10°C° 0 mm 2 m/S 747 mmHg 88%

Morgen, 24 Oktober, Samstag

Zeit Temperatur Niederschläge Wind Luftdruck Luftfeuchtigkeit
00:00 +10°C° 0 mm 2 m/S 747 mmHg 89%
01:00 +10°C° 0 mm 2 m/S 747 mmHg 91%
02:00 +9°C° 0 mm 2 m/S 747 mmHg 92%
03:00 +9°C° 0 mm 2 m/S 747 mmHg 93%
04:00 +9°C° 0 mm 3 m/S 747 mmHg 94%
05:00 +9°C° 0 mm 3 m/S 747 mmHg 94%
06:00 +8°C° 0 mm 4 m/S 747 mmHg 95%
07:00 +10°C° 0 mm 4 m/S 747 mmHg 96%
08:00 +10°C° 0 mm 5 m/S 747 mmHg 91%
09:00 +12°C° 0 mm 5 m/S 747 mmHg 86%
10:00 +13°C° 0 mm 6 m/S 747 mmHg 82%
11:00 +13°C° 0 mm 6 m/S 748 mmHg 79%
12:00 +13°C° 0 mm 6 m/S 748 mmHg 77%
13:00 +13°C° 0 mm 6 m/S 748 mmHg 75%
14:00 +11°C° 0 mm 6 m/S 749 mmHg 76%
15:00 +12°C° 0 mm 5 m/S 749 mmHg 77%
16:00 +11°C° 0 mm 4 m/S 749 mmHg 77%
17:00 +11°C° 0 mm 4 m/S 749 mmHg 80%
18:00 +11°C° 0 mm 3 m/S 750 mmHg 83%
19:00 +11°C° 0 mm 3 m/S 750 mmHg 86%
20:00 +10°C° 0.1 mm 3 m/S 750 mmHg 87%
21:00 +10°C° 0.1 mm 3 m/S 750 mmHg 89%
22:00 +10°C° 0.1 mm 3 m/S 751 mmHg 91%
23:00 +10°C° 0 mm 3 m/S 751 mmHg 91%

übermorgen, 25 Oktober, Sonntag

Zeit Temperatur Niederschläge Wind Luftdruck Luftfeuchtigkeit
00:00 +10°C° 0 mm 3 m/S 751 mmHg 92%
01:00 +9°C° 0 mm 3 m/S 751 mmHg 92%
02:00 +10°C° 0 mm 3 m/S 751 mmHg 91%
03:00 +10°C° 0 mm 3 m/S 751 mmHg 90%
04:00 +10°C° 0 mm 3 m/S 751 mmHg 88%
05:00 +10°C° 0 mm 3 m/S 750 mmHg 89%
06:00 +10°C° 0 mm 4 m/S 750 mmHg 90%
07:00 +10°C° 0 mm 4 m/S 750 mmHg 91%
08:00 +11°C° 0 mm 4 m/S 750 mmHg 86%
09:00 +12°C° 0 mm 5 m/S 751 mmHg 80%
10:00 +13°C° 0 mm 5 m/S 751 mmHg 75%
11:00 +14°C° 0 mm 5 m/S 750 mmHg 71%
12:00 +14°C° 0 mm 5 m/S 750 mmHg 67%
13:00 +15°C° 0 mm 5 m/S 750 mmHg 64%
14:00 +14°C° 0 mm 5 m/S 750 mmHg 66%
15:00 +14°C° 0 mm 5 m/S 749 mmHg 69%
16:00 +13°C° 0 mm 4 m/S 749 mmHg 71%
17:00 +13°C° 0 mm 4 m/S 749 mmHg 74%
18:00 +12°C° 0 mm 4 m/S 749 mmHg 77%
19:00 +12°C° 0 mm 5 m/S 749 mmHg 79%
20:00 +12°C° 0 mm 5 m/S 749 mmHg 80%
21:00 +12°C° 0 mm 5 m/S 749 mmHg 81%
22:00 +12°C° 0 mm 5 m/S 749 mmHg 82%
23:00 +10°C° 0 mm 5 m/S 749 mmHg 82%

, 26 Oktober, Montag

Zeit Temperatur Niederschläge Wind Luftdruck Luftfeuchtigkeit
00:00 +10°C° 0 mm 5 m/S 748 mmHg 82%
01:00 +10°C° 0 mm 5 m/S 748 mmHg 82%
02:00 +9°C° 0 mm 5 m/S 748 mmHg 84%
03:00 +9°C° 0 mm 5 m/S 748 mmHg 86%
04:00 +9°C° 0 mm 5 m/S 747 mmHg 88%
05:00 +8°C° 0 mm 5 m/S 747 mmHg 89%
06:00 +8°C° 0 mm 4 m/S 747 mmHg 90%
07:00 +8°C° 0 mm 4 m/S 747 mmHg 91%
08:00 +10°C° 0 mm 4 m/S 747 mmHg 86%
09:00 +11°C° 0 mm 4 m/S 747 mmHg 81%
10:00 +12°C° 0 mm 4 m/S 747 mmHg 75%
11:00 +13°C° 0 mm 4 m/S 746 mmHg 71%
12:00 +14°C° 0 mm 4 m/S 746 mmHg 68%
13:00 +15°C° 0 mm 4 m/S 746 mmHg 64%
14:00 +14°C° 0 mm 4 m/S 745 mmHg 68%
15:00 +13°C° 0 mm 3 m/S 745 mmHg 72%
16:00 +13°C° 0 mm 3 m/S 744 mmHg 76%
17:00 +12°C° 0 mm 3 m/S 744 mmHg 79%
18:00 +11°C° 0 mm 4 m/S 744 mmHg 82%
19:00 +11°C° 0 mm 4 m/S 744 mmHg 85%
20:00 +11°C° 0 mm 4 m/S 744 mmHg 85%
21:00 +11°C° 0 mm 4 m/S 744 mmHg 85%
22:00 +12°C° 0 mm 3 m/S 744 mmHg 85%
23:00 +11°C° 0 mm 3 m/S 744 mmHg 87%

26 Oktober, Montag

Zeit Temperatur Niederschläge Wind Luftdruck Luftfeuchtigkeit
00:00 +10°C° 0 mm 5 m/S 748 mmHg 82%
01:00 +10°C° 0 mm 5 m/S 748 mmHg 82%
02:00 +9°C° 0 mm 5 m/S 748 mmHg 84%
03:00 +9°C° 0 mm 5 m/S 748 mmHg 86%
04:00 +9°C° 0 mm 5 m/S 747 mmHg 88%
05:00 +8°C° 0 mm 5 m/S 747 mmHg 89%
06:00 +8°C° 0 mm 4 m/S 747 mmHg 90%
07:00 +8°C° 0 mm 4 m/S 747 mmHg 91%
08:00 +10°C° 0 mm 4 m/S 747 mmHg 86%
09:00 +11°C° 0 mm 4 m/S 747 mmHg 81%
10:00 +12°C° 0 mm 4 m/S 747 mmHg 75%
11:00 +13°C° 0 mm 4 m/S 746 mmHg 71%
12:00 +14°C° 0 mm 4 m/S 746 mmHg 68%
13:00 +15°C° 0 mm 4 m/S 746 mmHg 64%
14:00 +14°C° 0 mm 4 m/S 745 mmHg 68%
15:00 +13°C° 0 mm 3 m/S 745 mmHg 72%
16:00 +13°C° 0 mm 3 m/S 744 mmHg 76%
17:00 +12°C° 0 mm 3 m/S 744 mmHg 79%
18:00 +11°C° 0 mm 4 m/S 744 mmHg 82%
19:00 +11°C° 0 mm 4 m/S 744 mmHg 85%
20:00 +11°C° 0 mm 4 m/S 744 mmHg 85%
21:00 +11°C° 0 mm 4 m/S 744 mmHg 85%
22:00 +12°C° 0 mm 3 m/S 744 mmHg 85%
23:00 +11°C° 0 mm 3 m/S 744 mmHg 87%

27 Oktober, Dienstag

Zeit Temperatur Niederschläge Wind Luftdruck Luftfeuchtigkeit
00:00 +11°C° 0 mm 3 m/S 744 mmHg 89%
01:00 +11°C° 0 mm 3 m/S 744 mmHg 90%
02:00 +11°C° 0 mm 3 m/S 743 mmHg 91%
03:00 +11°C° 0 mm 3 m/S 743 mmHg 91%
04:00 +11°C° 0 mm 3 m/S 743 mmHg 91%
05:00 +11°C° 0 mm 3 m/S 744 mmHg 91%
06:00 +11°C° 0 mm 3 m/S 744 mmHg 90%
07:00 +12°C° 0 mm 2 m/S 744 mmHg 89%
08:00 +12°C° 0 mm 2 m/S 744 mmHg 86%
09:00 +13°C° 0 mm 2 m/S 744 mmHg 82%
10:00 +14°C° 0 mm 2 m/S 744 mmHg 79%
11:00 +14°C° 0 mm 2 m/S 745 mmHg 77%
12:00 +15°C° 0 mm 2 m/S 745 mmHg 74%
13:00 +16°C° 0 mm 3 m/S 745 mmHg 72%
14:00 +15°C° 0 mm 2 m/S 746 mmHg 75%
15:00 +15°C° 0 mm 2 m/S 746 mmHg 78%
16:00 +14°C° 0 mm 2 m/S 746 mmHg 81%
17:00 +14°C° 0 mm 2 m/S 746 mmHg 83%
18:00 +13°C° 0 mm 2 m/S 747 mmHg 85%
19:00 +12°C° 0 mm 2 m/S 747 mmHg 87%
20:00 +12°C° 0 mm 2 m/S 747 mmHg 88%
21:00 +12°C° 0 mm 2 m/S 747 mmHg 88%
22:00 +10°C° 0 mm 2 m/S 748 mmHg 88%
23:00 +10°C° 0 mm 2 m/S 748 mmHg 88%

28 Oktober, Mittwoch

Zeit Temperatur Niederschläge Wind Luftdruck Luftfeuchtigkeit
00:00 +12°C° 0 mm 2 m/S 748 mmHg 88%
01:00 +12°C° 0 mm 1 m/S 748 mmHg 88%
02:00 +12°C° 0 mm 1 m/S 748 mmHg 89%
03:00 +11°C° 0 mm 1 m/S 748 mmHg 90%
04:00 +11°C° 0 mm 1 m/S 748 mmHg 90%
05:00 +11°C° 0 mm 1 m/S 748 mmHg 91%
06:00 +10°C° 0 mm 2 m/S 748 mmHg 92%
07:00 +10°C° 0 mm 2 m/S 748 mmHg 93%
08:00 +11°C° 0 mm 3 m/S 748 mmHg 90%
09:00 +11°C° 0 mm 3 m/S 748 mmHg 86%
10:00 +12°C° 0 mm 4 m/S 748 mmHg 83%
11:00 +12°C° 0 mm 5 m/S 748 mmHg 83%
12:00 +12°C° 0 mm 5 m/S 748 mmHg 82%
13:00 +10°C° 0 mm 5 m/S 749 mmHg 82%
14:00 +10°C° 0 mm 5 m/S 749 mmHg 81%
15:00 +11°C° 0 mm 4 m/S 749 mmHg 80%
16:00 +10°C° 0 mm 3 m/S 749 mmHg 80%
17:00 +10°C° 0 mm 3 m/S 750 mmHg 80%
18:00 +9°C° 0 mm 3 m/S 750 mmHg 81%
19:00 +9°C° 0 mm 3 m/S 750 mmHg 81%
20:00 +8°C° 0 mm 3 m/S 750 mmHg 81%
21:00 +7°C° 0 mm 4 m/S 750 mmHg 82%
22:00 +6°C° 0 mm 4 m/S 751 mmHg 82%
23:00 +7°C° 0 mm 3 m/S 750 mmHg 83%
Mehr zeigen

Wir brauchen deine Erlaubnis

Meteoprog und unser Service Anbieter werden persönliche Daten aufbewahren, so wie Cookies, Geräte Bezeichnung oder ähnliche Technologien von deinem Gerät und Prozess, so wie Persönliche Daten Inhalte und Werbungen, genauso wie social Media und den Verkehr zu analysieren.

  • Aufbewahrung und/oder Zugang zu deiner Geräte Informationen.

    Cookies, Geräte Bezeichnung oder andere Informationen, können aufbewahrt oder Zugang zu deinem Gerät erhalten, für den Grund, der oben angegeben wird.

  • Personalisierte Werbung und Inhalte, Messungen, Einblick in das Publikum und Produkt Entwicklung.

    Werbungen und Inhalte können personalisiert werden, basierend auf ein Profil. Mehr Daten können besser personalisierte Werbungen und Inhalte hinzufügen. Werbung und Inhalte können gezeigt und gemessen werden. Einblicke über das Publikum, welche die Werbung gesehen haben und den Inhalt, können abgeleitet werden. So wie Daten können genutzt werden, um es zu verbessern oder die Benutzer Erfahrung zu verbessern das System und die Software.

Wenn du “Ich stimme zu” klickst, erlaubst du uns, die Cookies zu benutzen die Geräte Bezeichnung, den Web oder ähnliche Technologien zu benutzen. Deine Settings, können in deinem Gerät bei deinem Browser geändert werden.

Für den bestimmten Zweck, berechtigten Interessen beruhen darauf, mehr als auf den Inhalt. Du kannst mehr darüber in unseren Privaten und Cookie Politik lesen.